Regional Weather Roundup
Issued by NWS

Home | Current Version | Previous Version | Text Only | Print | Product List | Glossary Off
Versions: 1 2 3 4 5 6 7 8 9 10 11 12 13 14 15 16 17 18 19 20 21 22 23 24 25 26 27 28 29 30 31 32 33 34 35 36 37 38 39 40 41 42 43 44 45 46 47 48 49 50

000
ASUS43 KIND 280059
RWRIN

WEATHER ROUNDUP FOR INDIANA
NATIONAL WEATHER SERVICE INDIANAPOLIS IN
800 PM EST SAT DEC 27 2014

NOTE: "FAIR" INDICATES FEW OR NO CLOUDS BELOW 12,000 FEET WITH NO
SIGNIFICANT WEATHER AND/OR OBSTRUCTIONS TO VISIBILITY.

* - STATION DOES NOT REPORT WEATHER SUCH AS PRECIPITATION OR FOG.

+ - STATION NOT QUALITY CONTROLLED BY THE NATIONAL WEATHER SERVICE.
    USE DATA WITH CAUTION...ESPECIALLY DEWPOINT AND RELATIVE
    HUMIDITY OBSERVATIONS.

INZ001>003-010>013-019-020-280200-
NORTHWEST INDIANA

CITY           SKY/WX    TMP DP  RH WIND       PRES   REMARKS
GARY /AIRPORT/ CLOUDY    36  25  64 W14G29    30.09R
KNOX *+        CLOUDY    36  29  75 W13       30.07R
VALPARAISO     NOT AVBL

$$

LMZ046-743>745-280200-
SOUTHERN LAKE MICHIGAN

STATION/POSITION TIME  TEMP WIND        PRES
                       AIR  DIR/SP/G
                 (UTC) (F)  (DEG/KT/KT) (MB)
MICHIGAN CITY    0000   36  240/ 22/ 25   N/A

$$

INZ004-005-014>016-021>024-280200-
NORTH CENTRAL INDIANA

CITY           SKY/WX    TMP DP  RH WIND       PRES   REMARKS
GOSHEN         LGT RAIN  37  33  85 W13       30.04F
SOUTH BEND     CLOUDY    37  30  75 W15       30.06S

$$

INZ006>009-017-018-025>027-280200-
NORTHEAST INDIANA

CITY           SKY/WX    TMP DP  RH WIND       PRES   REMARKS
ANGOLA *+      CLOUDY    37  36  93 W6        30.01F
FORT WAYNE     CLOUDY    40  35  83 W22       30.05F

$$

INZ028-029-035-036-043>045-051>053-280200-
WEST CENTRAL INDIANA

CITY           SKY/WX    TMP DP  RH WIND       PRES   REMARKS
GREENCASTLE +  CLOUDY    37  34  87 NW8       30.11R HAZE
LAFAYETTE      LGT RAIN  34  32  92 W12       30.12R WCI  25
TERRE HAUTE    LGT RAIN  39  36  89 NW9       30.14R FOG

$$

INZ030>032-037>040-046>048-054>057-064-065-280200-
CENTRAL INDIANA

CITY           SKY/WX    TMP DP  RH WIND       PRES   REMARKS
COLUMBUS       LGT RAIN  45  45 100 S5        30.06F FOG
INDIANAPOLIS   DRIZZLE   40  39  97 NW16      30.08R
-EAGLE CREEK   CLOUDY    39  38  96 NW12      30.08R
KOKOMO *+      CLOUDY    39  34  81 NW14      30.08R
MT COMFORT *+  CLOUDY    43 N/A N/A NW14      30.07S
SHELBYVILLE    CLOUDY    47  45  93 SW7       30.05F FOG

$$

INZ033-034-041-042-049-050-058-059-280200-
EAST CENTRAL INDIANA

CITY           SKY/WX    TMP DP  RH WIND       PRES   REMARKS
MUNCIE         LGT RAIN  47  45  93 NW17      30.04F

$$

INZ060-061-067>069-081>083-085>088-280200-
SOUTHWEST INDIANA

CITY           SKY/WX    TMP DP  RH WIND       PRES   REMARKS
EVANSVILLE     LGT RAIN  50  48  93 NW6       30.12R FOG
HUNTINGBURG *+ CLOUDY    46  45  93 SW6       30.11R

$$

INZ062-063-066-070>080-084-089>092-280200-
SOUTH CENTRAL AND SOUTHEAST INDIANA

CITY           SKY/WX    TMP DP  RH WIND       PRES   REMARKS
BLOOMINGTON    LGT RAIN  47  46  97 NW7       30.09R FOG
SEYMOUR +      CLOUDY    46  46 100 S6        30.08R FOG

$$



USA.gov is the U.S. government's official web portal to all federal, state and local government web resources and services.